Time,TemperatureF,DewpointF,PressureIn,WindDirection,WindDirectionDegrees,WindSpeedMPH,WindSpeedGustMPH,Humidity,HourlyPrecipIn,Conditions,Clouds,dailyrainin,SoftwareType,DateUTC
2013-09-09 00:04:00,70.0,55.9,-100.00,North,-999,0.0,0.0,61,0.00,,,-99.99,FreeWX-Wi 1.02,2013-09-09 04:04:00,
2013-09-09 00:14:00,69.8,56.1,-100.00,North,-999,0.0,0.0,62,0.00,,,-99.99,FreeWX-Wi 1.02,2013-09-09 04:14:00,
2013-09-09 00:24:00,69.6,55.9,-100.00,North,-999,0.0,0.0,62,0.00,,,-99.99,FreeWX-Wi 1.02,2013-09-09 04:24:00,
2013-09-09 00:34:00,69.4,55.8,-100.00,North,-999,0.0,0.0,62,0.00,,,-99.99,FreeWX-Wi 1.02,2013-09-09 04:34:00,
2013-09-09 00:44:00,69.3,55.8,-100.00,North,-999,0.0,0.0,62,0.00,,,-99.99,FreeWX-Wi 1.02,2013-09-09 04:44:00,
2013-09-09 00:54:00,69.3,55.8,-100.00,North,-999,0.0,0.0,62,0.00,,,-99.99,FreeWX-Wi 1.02,2013-09-09 04:54:00,
2013-09-09 01:04:00,69.1,55.6,-100.00,North,-999,0.0,0.0,62,0.00,,,-99.99,FreeWX-Wi 1.02,2013-09-09 05:04:00,
2013-09-09 01:14:00,68.9,55.8,-100.00,North,-999,0.0,0.0,63,0.00,,,-99.99,FreeWX-Wi 1.02,2013-09-09 05:14:00,
2013-09-09 01:24:00,68.9,55.8,-100.00,North,-999,0.0,0.0,63,0.00,,,-99.99,FreeWX-Wi 1.02,2013-09-09 05:24:00,
2013-09-09 01:34:00,68.7,55.6,-100.00,North,-999,0.0,0.0,63,0.00,,,-99.99,FreeWX-Wi 1.02,2013-09-09 05:34:00,
2013-09-09 01:44:00,68.7,55.6,-100.00,North,-999,0.0,0.0,63,0.00,,,-99.99,FreeWX-Wi 1.02,2013-09-09 05:44:00,
2013-09-09 01:54:00,68.5,55.4,-100.00,North,-999,0.0,0.0,63,0.00,,,-99.99,FreeWX-Wi 1.02,2013-09-09 05:54:00,
2013-09-09 02:04:00,68.5,55.4,-100.00,North,-999,0.0,0.0,63,0.00,,,-99.99,FreeWX-Wi 1.02,2013-09-09 06:04:00,
2013-09-09 02:14:00,68.4,55.2,-100.00,North,-999,0.0,0.0,63,0.00,,,-99.99,FreeWX-Wi 1.02,2013-09-09 06:14:00,
2013-09-09 02:24:00,68.2,55.0,-100.00,North,-999,0.0,0.0,63,0.00,,,-99.99,FreeWX-Wi 1.02,2013-09-09 06:24:00,
2013-09-09 02:34:00,68.2,55.0,-100.00,North,-999,0.0,0.0,63,0.00,,,-99.99,FreeWX-Wi 1.02,2013-09-09 06:34:00,
2013-09-09 02:44:00,68.2,55.6,-100.00,North,-999,0.0,0.0,64,0.00,,,-99.99,FreeWX-Wi 1.02,2013-09-09 06:44:00,
2013-09-09 02:54:00,68.0,55.4,-100.00,North,-999,0.0,0.0,64,0.00,,,-99.99,FreeWX-Wi 1.02,2013-09-09 06:54:00,
2013-09-09 03:04:00,68.0,55.4,-100.00,North,-999,0.0,0.0,64,0.00,,,-99.99,FreeWX-Wi 1.02,2013-09-09 07:04:00,
2013-09-09 03:14:00,67.8,55.6,-100.00,North,-999,0.0,0.0,65,0.00,,,-99.99,FreeWX-Wi 1.02,2013-09-09 07:14:00,
2013-09-09 03:24:00,67.8,55.6,-100.00,North,-999,0.0,0.0,65,0.00,,,-99.99,FreeWX-Wi 1.02,2013-09-09 07:24:00,
2013-09-09 03:34:00,67.8,55.6,-100.00,North,-999,0.0,0.0,65,0.00,,,-99.99,FreeWX-Wi 1.02,2013-09-09 07:34:00,
2013-09-09 03:44:00,67.8,55.6,-100.00,North,-999,0.0,0.0,65,0.00,,,-99.99,FreeWX-Wi 1.02,2013-09-09 07:44:00,
2013-09-09 03:54:00,67.8,55.6,-100.00,North,-999,0.0,0.0,65,0.00,,,-99.99,FreeWX-Wi 1.02,2013-09-09 07:54:00,
2013-09-09 04:04:00,67.8,56.1,-100.00,North,-999,0.0,0.0,66,0.00,,,-99.99,FreeWX-Wi 1.02,2013-09-09 08:04:00,
2013-09-09 04:14:00,67.8,56.1,-100.00,North,-999,0.0,0.0,66,0.00,,,-99.99,FreeWX-Wi 1.02,2013-09-09 08:14:00,
2013-09-09 04:24:00,67.8,56.1,-100.00,North,-999,0.0,0.0,66,0.00,,,-99.99,FreeWX-Wi 1.02,2013-09-09 08:24:00,
2013-09-09 04:34:00,67.6,55.9,-100.00,North,-999,0.0,0.0,66,0.00,,,-99.99,FreeWX-Wi 1.02,2013-09-09 08:34:00,
2013-09-09 04:44:00,67.6,55.9,-100.00,North,-999,0.0,0.0,66,0.00,,,-99.99,FreeWX-Wi 1.02,2013-09-09 08:44:00,
2013-09-09 04:54:00,67.6,56.3,-100.00,North,-999,0.0,0.0,67,0.00,,,-99.99,FreeWX-Wi 1.02,2013-09-09 08:54:00,
2013-09-09 05:04:00,67.6,56.3,-100.00,North,-999,0.0,0.0,67,0.00,,,-99.99,FreeWX-Wi 1.02,2013-09-09 09:04:00,
2013-09-09 05:14:00,67.5,56.1,-100.00,North,-999,0.0,0.0,67,0.00,,,-99.99,FreeWX-Wi 1.02,2013-09-09 09:14:00,
2013-09-09 05:24:00,67.5,56.1,-100.00,North,-999,0.0,0.0,67,0.00,,,-99.99,FreeWX-Wi 1.02,2013-09-09 09:24:00,
2013-09-09 05:34:00,67.5,56.1,-100.00,North,-999,0.0,0.0,67,0.00,,,-99.99,FreeWX-Wi 1.02,2013-09-09 09:34:00,
2013-09-09 05:44:00,67.3,55.9,-100.00,North,-999,0.0,0.0,67,0.00,,,-99.99,FreeWX-Wi 1.02,2013-09-09 09:44:00,
2013-09-09 05:54:00,67.1,55.8,-100.00,North,-999,0.0,0.0,67,0.00,,,-99.99,FreeWX-Wi 1.02,2013-09-09 09:54:00,
2013-09-09 06:04:00,67.1,55.8,-100.00,North,-999,0.0,0.0,67,0.00,,,-99.99,FreeWX-Wi 1.02,2013-09-09 10:04:00,
2013-09-09 06:14:00,67.1,55.8,-100.00,North,-999,0.0,0.0,67,0.00,,,-99.99,FreeWX-Wi 1.02,2013-09-09 10:14:00,
2013-09-09 06:24:00,66.9,55.6,-100.00,North,-999,0.0,0.0,67,0.00,,,-99.99,FreeWX-Wi 1.02,2013-09-09 10:24:00,
2013-09-09 06:34:00,66.9,55.9,-100.00,North,-999,0.0,0.0,68,0.00,,,-99.99,FreeWX-Wi 1.02,2013-09-09 10:34:00,
2013-09-09 06:44:00,66.9,55.9,-100.00,North,-999,0.0,0.0,68,0.00,,,-99.99,FreeWX-Wi 1.02,2013-09-09 10:44:00,
2013-09-09 06:54:00,66.9,55.9,-100.00,North,-999,0.0,0.0,68,0.00,,,-99.99,FreeWX-Wi 1.02,2013-09-09 10:54:00,
2013-09-09 07:04:00,66.9,55.9,-100.00,North,-999,0.0,0.0,68,0.00,,,-99.99,FreeWX-Wi 1.02,2013-09-09 11:04:00,
2013-09-09 07:14:00,66.9,55.9,-100.00,North,-999,0.0,0.0,68,0.00,,,-99.99,FreeWX-Wi 1.02,2013-09-09 11:14:00,
2013-09-09 07:24:00,66.9,55.9,-100.00,North,-999,0.0,0.0,68,0.00,,,-99.99,FreeWX-Wi 1.02,2013-09-09 11:24:00,
2013-09-09 07:34:00,66.9,55.9,-100.00,North,-999,0.0,0.0,68,0.00,,,-99.99,FreeWX-Wi 1.02,2013-09-09 11:34:00,
2013-09-09 07:44:00,66.9,55.9,-100.00,North,-999,0.0,0.0,68,0.00,,,-99.99,FreeWX-Wi 1.02,2013-09-09 11:44:00,
2013-09-09 07:54:00,66.9,56.5,-100.00,North,-999,0.0,0.0,69,0.00,,,-99.99,FreeWX-Wi 1.02,2013-09-09 11:54:00,
2013-09-09 08:04:00,67.1,56.7,-100.00,North,-999,0.0,0.0,69,0.00,,,-99.99,FreeWX-Wi 1.02,2013-09-09 12:04:00,
2013-09-09 08:14:00,67.3,56.8,-100.00,North,-999,0.0,0.0,69,0.00,,,-99.99,FreeWX-Wi 1.02,2013-09-09 12:14:00,
2013-09-09 08:24:00,67.5,56.8,-100.00,North,-999,0.0,0.0,69,0.00,,,-99.99,FreeWX-Wi 1.02,2013-09-09 12:24:00,
2013-09-09 08:34:00,68.0,57.4,-100.00,North,-999,0.0,0.0,69,0.00,,,-99.99,FreeWX-Wi 1.02,2013-09-09 12:34:00,
2013-09-09 08:44:00,68.5,58.3,-100.00,North,-999,0.0,0.0,70,0.00,,,-99.99,FreeWX-Wi 1.02,2013-09-09 12:44:00,
2013-09-09 08:54:00,69.3,59.0,-100.00,North,-999,0.0,0.0,70,0.00,,,-99.99,FreeWX-Wi 1.02,2013-09-09 12:54:00,
2013-09-09 09:04:00,69.6,59.7,-100.00,North,-999,0.0,0.0,71,0.00,,,-99.99,FreeWX-Wi 1.02,2013-09-09 13:04:00,
2013-09-09 09:14:00,70.2,60.3,-100.00,North,-999,0.0,0.0,71,0.00,,,-99.99,FreeWX-Wi 1.02,2013-09-09 13:14:00,
2013-09-09 09:24:00,70.5,60.6,-100.00,North,-999,0.0,0.0,71,0.00,,,-99.99,FreeWX-Wi 1.02,2013-09-09 13:24:00,
2013-09-09 09:34:00,71.1,61.2,-100.00,North,-999,0.0,0.0,71,0.00,,,-99.99,FreeWX-Wi 1.02,2013-09-09 13:34:00,
2013-09-09 09:44:00,71.6,61.3,-100.00,North,-999,0.0,0.0,70,0.00,,,-99.99,FreeWX-Wi 1.02,2013-09-09 13:44:00,
2013-09-09 09:54:00,72.1,61.9,-100.00,North,-999,0.0,0.0,70,0.00,,,-99.99,FreeWX-Wi 1.02,2013-09-09 13:54:00,
2013-09-09 10:04:00,72.5,61.7,-100.00,North,-999,0.0,0.0,69,0.00,,,-99.99,FreeWX-Wi 1.02,2013-09-09 14:04:00,
2013-09-09 10:14:00,73.4,62.2,-100.00,North,-999,0.0,4.0,68,0.00,,,-99.99,FreeWX-Wi 1.02,2013-09-09 14:14:00,
2013-09-09 10:24:00,74.1,62.1,-100.00,North,-999,0.0,3.6,66,0.00,,,-99.99,FreeWX-Wi 1.02,2013-09-09 14:24:00,
2013-09-09 10:34:00,75.2,61.7,-100.00,North,-999,0.0,3.6,63,0.00,,,-99.99,FreeWX-Wi 1.02,2013-09-09 14:34:00,
2013-09-09 10:44:00,76.1,60.8,-100.00,North,-999,0.0,2.7,59,0.00,,,-99.99,FreeWX-Wi 1.02,2013-09-09 14:44:00,
2013-09-09 10:54:00,76.8,61.3,-100.00,North,-999,0.0,0.0,59,0.00,,,-99.99,FreeWX-Wi 1.02,2013-09-09 14:54:00,
2013-09-09 11:04:00,77.5,60.6,-100.00,North,-999,0.0,0.0,56,0.00,,,-99.99,FreeWX-Wi 1.02,2013-09-09 15:04:00,
2013-09-09 11:14:00,78.4,60.4,-100.00,North,-999,0.0,2.7,54,0.00,,,-99.99,FreeWX-Wi 1.02,2013-09-09 15:14:00,
2013-09-09 11:24:00,79.0,59.4,-100.00,North,-999,0.0,4.0,51,0.00,,,-99.99,FreeWX-Wi 1.02,2013-09-09 15:24:00,
2013-09-09 11:34:00,79.3,59.5,-100.00,North,-999,0.0,3.1,51,0.00,,,-99.99,FreeWX-Wi 1.02,2013-09-09 15:34:00,
2013-09-09 11:44:00,79.9,59.0,-100.00,North,-999,0.0,2.2,49,0.00,,,-99.99,FreeWX-Wi 1.02,2013-09-09 15:44:00,
2013-09-09 11:54:00,80.4,58.3,-100.00,North,-999,0.0,2.7,47,0.00,,,-99.99,FreeWX-Wi 1.02,2013-09-09 15:54:00,
2013-09-09 12:04:00,81.3,58.5,-100.00,North,-999,0.0,3.6,46,0.00,,,-99.99,FreeWX-Wi 1.02,2013-09-09 16:04:00,
2013-09-09 12:14:00,82.2,58.1,-100.00,North,-999,0.0,3.6,44,0.00,,,-99.99,FreeWX-Wi 1.02,2013-09-09 16:14:00,
2013-09-09 12:24:00,82.6,57.7,-100.00,North,-999,0.0,0.0,43,0.00,,,-99.99,FreeWX-Wi 1.02,2013-09-09 16:24:00,
2013-09-09 12:34:00,82.6,57.2,-100.00,North,-999,0.0,0.0,42,0.00,,,-99.99,FreeWX-Wi 1.02,2013-09-09 16:34:00,
2013-09-09 12:44:00,83.3,56.5,-100.00,North,-999,0.0,2.7,40,0.00,,,-99.99,FreeWX-Wi 1.02,2013-09-09 16:44:00,
2013-09-09 12:54:00,83.7,56.7,-100.00,North,-999,0.0,0.0,40,0.00,,,-99.99,FreeWX-Wi 1.02,2013-09-09 16:54:00,
2013-09-09 13:04:00,84.0,56.3,-100.00,North,-999,0.0,0.0,39,0.00,,,-99.99,FreeWX-Wi 1.02,2013-09-09 17:04:00,
2013-09-09 13:14:00,83.8,56.1,-100.00,North,-999,0.0,3.1,39,0.00,,,-99.99,FreeWX-Wi 1.02,2013-09-09 17:14:00,
2013-09-09 13:24:00,83.8,55.4,-100.00,North,-999,0.0,0.0,38,0.00,,,-99.99,FreeWX-Wi 1.02,2013-09-09 17:24:00,
2013-09-09 13:34:00,82.8,55.2,-100.00,North,-999,0.0,0.0,39,0.00,,,-99.99,FreeWX-Wi 1.02,2013-09-09 17:34:00,
2013-09-09 13:44:00,82.6,55.0,-100.00,North,-999,0.0,0.0,39,0.00,,,-99.99,FreeWX-Wi 1.02,2013-09-09 17:44:00,
2013-09-09 13:54:00,82.6,54.3,-100.00,North,-999,0.0,0.0,38,0.00,,,-99.99,FreeWX-Wi 1.02,2013-09-09 17:54:00,
2013-09-09 14:04:00,82.0,54.0,-100.00,North,-999,0.0,0.0,38,0.00,,,-99.99,FreeWX-Wi 1.02,2013-09-09 18:04:00,
2013-09-09 14:14:00,81.9,54.5,-100.00,North,-999,0.0,3.6,39,0.00,,,-99.99,FreeWX-Wi 1.02,2013-09-09 18:14:00,
2013-09-09 14:24:00,81.7,55.0,-100.00,North,-999,0.0,0.0,40,0.00,,,-99.99,FreeWX-Wi 1.02,2013-09-09 18:24:00,
2013-09-09 14:34:00,81.5,54.9,-100.00,North,-999,0.0,0.0,40,0.00,,,-99.99,FreeWX-Wi 1.02,2013-09-09 18:34:00,
2013-09-09 14:44:00,81.5,54.9,-100.00,North,-999,0.0,0.0,40,0.00,,,-99.99,FreeWX-Wi 1.02,2013-09-09 18:44:00,
2013-09-09 14:54:00,81.5,55.6,-100.00,North,-999,0.0,0.0,41,0.00,,,-99.99,FreeWX-Wi 1.02,2013-09-09 18:54:00,
2013-09-09 15:04:00,81.3,54.7,-100.00,North,-999,0.0,0.0,40,0.00,,,-99.99,FreeWX-Wi 1.02,2013-09-09 19:04:00,
2013-09-09 15:14:00,81.5,55.6,-100.00,North,-999,0.0,0.0,41,0.00,,,-99.99,FreeWX-Wi 1.02,2013-09-09 19:14:00,
2013-09-09 15:24:00,81.3,55.9,-100.00,North,-999,0.0,0.0,42,0.00,,,-99.99,FreeWX-Wi 1.02,2013-09-09 19:24:00,
2013-09-09 15:34:00,81.3,55.9,-100.00,North,-999,0.0,0.0,42,0.00,,,-99.99,FreeWX-Wi 1.02,2013-09-09 19:34:00,
2013-09-09 15:44:00,81.1,55.8,-100.00,North,-999,0.0,0.0,42,0.00,,,-99.99,FreeWX-Wi 1.02,2013-09-09 19:44:00,
2013-09-09 15:54:00,81.1,55.8,-100.00,North,-999,0.0,0.0,42,0.00,,,-99.99,FreeWX-Wi 1.02,2013-09-09 19:54:00,
2013-09-09 16:04:00,81.0,55.8,-100.00,North,-999,0.0,4.0,42,0.00,,,-99.99,FreeWX-Wi 1.02,2013-09-09 20:04:00,
2013-09-09 16:14:00,81.0,55.8,-100.00,North,-999,0.0,0.0,42,0.00,,,-99.99,FreeWX-Wi 1.02,2013-09-09 20:14:00,
2013-09-09 16:24:00,81.0,56.3,-100.00,North,-999,0.0,0.0,43,0.00,,,-99.99,FreeWX-Wi 1.02,2013-09-09 20:24:00,
2013-09-09 16:34:00,80.8,56.8,-100.00,North,-999,0.0,0.0,44,0.00,,,-99.99,FreeWX-Wi 1.02,2013-09-09 20:34:00,
2013-09-09 16:44:00,80.8,56.1,-100.00,North,-999,0.0,3.1,43,0.00,,,-99.99,FreeWX-Wi 1.02,2013-09-09 20:44:00,
2013-09-09 16:54:00,80.6,55.9,-100.00,North,-999,0.0,0.0,43,0.00,,,-99.99,FreeWX-Wi 1.02,2013-09-09 20:54:00,
2013-09-09 17:04:00,80.6,56.7,-100.00,North,-999,0.0,0.0,44,0.00,,,-99.99,FreeWX-Wi 1.02,2013-09-09 21:04:00,
2013-09-09 17:14:00,80.4,57.0,-100.00,North,-999,0.0,0.0,45,0.00,,,-99.99,FreeWX-Wi 1.02,2013-09-09 21:14:00,
2013-09-09 17:24:00,80.2,57.6,-100.00,North,-999,0.0,0.0,46,0.00,,,-99.99,FreeWX-Wi 1.02,2013-09-09 21:24:00,
2013-09-09 17:34:00,79.9,57.7,-100.00,North,-999,0.0,0.0,47,0.00,,,-99.99,FreeWX-Wi 1.02,2013-09-09 21:34:00,
2013-09-09 17:44:00,79.7,57.7,-100.00,North,-999,0.0,0.0,47,0.00,,,-99.99,FreeWX-Wi 1.02,2013-09-09 21:44:00,
2013-09-09 17:54:00,79.5,58.1,-100.00,North,-999,0.0,0.0,48,0.00,,,-99.99,FreeWX-Wi 1.02,2013-09-09 21:54:00,
2013-09-09 18:04:00,79.3,58.5,-100.00,North,-999,0.0,0.0,49,0.00,,,-99.99,FreeWX-Wi 1.02,2013-09-09 22:04:00,
2013-09-09 18:14:00,79.2,58.3,-100.00,North,-999,0.0,0.0,49,0.00,,,-99.99,FreeWX-Wi 1.02,2013-09-09 22:14:00,
2013-09-09 18:24:00,79.0,58.6,-100.00,North,-999,0.0,0.0,50,0.00,,,-99.99,FreeWX-Wi 1.02,2013-09-09 22:24:00,
2013-09-09 18:34:00,78.6,58.5,-100.00,North,-999,0.0,0.0,50,0.00,,,-99.99,FreeWX-Wi 1.02,2013-09-09 22:34:00,
2013-09-09 18:44:00,78.4,58.8,-100.00,North,-999,0.0,0.0,51,0.00,,,-99.99,FreeWX-Wi 1.02,2013-09-09 22:44:00,
2013-09-09 18:54:00,78.1,58.5,-100.00,North,-999,0.0,0.0,51,0.00,,,-99.99,FreeWX-Wi 1.02,2013-09-09 22:54:00,
2013-09-09 19:04:00,77.9,58.3,-100.00,North,-999,0.0,0.0,51,0.00,,,-99.99,FreeWX-Wi 1.02,2013-09-09 23:04:00,
2013-09-09 19:14:00,77.7,58.1,-100.00,North,-999,0.0,0.0,51,0.00,,,-99.99,FreeWX-Wi 1.02,2013-09-09 23:14:00,
2013-09-09 19:24:00,77.5,58.5,-100.00,North,-999,0.0,0.0,52,0.00,,,-99.99,FreeWX-Wi 1.02,2013-09-09 23:24:00,
2013-09-09 19:34:00,77.2,58.1,-100.00,North,-999,0.0,0.0,52,0.00,,,-99.99,FreeWX-Wi 1.02,2013-09-09 23:34:00,
2013-09-09 19:44:00,76.8,58.5,-100.00,North,-999,0.0,0.0,53,0.00,,,-99.99,FreeWX-Wi 1.02,2013-09-09 23:44:00,
2013-09-09 19:54:00,76.6,58.3,-100.00,North,-999,0.0,0.0,53,0.00,,,-99.99,FreeWX-Wi 1.02,2013-09-09 23:54:00,
2013-09-09 20:04:00,76.3,57.9,-100.00,North,-999,0.0,0.0,53,0.00,,,-99.99,FreeWX-Wi 1.02,2013-09-10 00:04:00,
2013-09-09 20:14:00,75.9,58.1,-100.00,North,-999,0.0,0.0,54,0.00,,,-99.99,FreeWX-Wi 1.02,2013-09-10 00:14:00,
2013-09-09 20:24:00,75.6,58.3,-100.00,North,-999,0.0,0.0,55,0.00,,,-99.99,FreeWX-Wi 1.02,2013-09-10 00:24:00,
2013-09-09 20:34:00,75.4,58.1,-100.00,North,-999,0.0,0.0,55,0.00,,,-99.99,FreeWX-Wi 1.02,2013-09-10 00:34:00,
2013-09-09 20:44:00,75.2,58.5,-100.00,North,-999,0.0,0.0,56,0.00,,,-99.99,FreeWX-Wi 1.02,2013-09-10 00:44:00,
2013-09-09 20:54:00,74.8,58.1,-100.00,North,-999,0.0,0.0,56,0.00,,,-99.99,FreeWX-Wi 1.02,2013-09-10 00:54:00,
2013-09-09 21:04:00,74.7,58.5,-100.00,North,-999,0.0,0.0,57,0.00,,,-99.99,FreeWX-Wi 1.02,2013-09-10 01:04:00,
2013-09-09 21:14:00,74.3,58.1,-100.00,North,-999,0.0,0.0,57,0.00,,,-99.99,FreeWX-Wi 1.02,2013-09-10 01:14:00,
2013-09-09 21:24:00,74.1,58.5,-100.00,North,-999,0.0,0.0,58,0.00,,,-99.99,FreeWX-Wi 1.02,2013-09-10 01:24:00,
2013-09-09 21:34:00,73.9,58.6,-100.00,North,-999,0.0,0.0,59,0.00,,,-99.99,FreeWX-Wi 1.02,2013-09-10 01:34:00,
2013-09-09 21:44:00,73.8,59.0,-100.00,North,-999,0.0,0.0,60,0.00,,,-99.99,FreeWX-Wi 1.02,2013-09-10 01:44:00,
2013-09-09 21:54:00,73.8,59.5,-100.00,North,-999,0.0,0.0,61,0.00,,,-99.99,FreeWX-Wi 1.02,2013-09-10 01:54:00,
2013-09-09 22:04:00,73.8,59.5,-100.00,North,-999,0.0,0.0,61,0.00,,,-99.99,FreeWX-Wi 1.02,2013-09-10 02:04:00,
2013-09-09 22:14:00,73.8,59.9,-100.00,North,-999,0.0,0.0,62,0.00,,,-99.99,FreeWX-Wi 1.02,2013-09-10 02:14:00,
2013-09-09 22:24:00,73.8,59.9,-100.00,North,-999,0.0,0.0,62,0.00,,,-99.99,FreeWX-Wi 1.02,2013-09-10 02:24:00,
2013-09-09 22:34:00,73.8,59.9,-100.00,North,-999,0.0,0.0,62,0.00,,,-99.99,FreeWX-Wi 1.02,2013-09-10 02:34:00,
2013-09-09 22:44:00,73.6,60.3,-100.00,North,-999,0.0,0.0,63,0.00,,,-99.99,FreeWX-Wi 1.02,2013-09-10 02:44:00,
2013-09-09 22:54:00,73.4,60.1,-100.00,North,-999,0.0,0.0,63,0.00,,,-99.99,FreeWX-Wi 1.02,2013-09-10 02:54:00,
2013-09-09 23:04:00,73.4,60.1,-100.00,North,-999,0.0,0.0,63,0.00,,,-99.99,FreeWX-Wi 1.02,2013-09-10 03:04:00,
2013-09-09 23:14:00,73.2,59.9,-100.00,North,-999,0.0,0.0,63,0.00,,,-99.99,FreeWX-Wi 1.02,2013-09-10 03:14:00,
2013-09-09 23:24:00,73.2,59.9,-100.00,North,-999,0.0,0.0,63,0.00,,,-99.99,FreeWX-Wi 1.02,2013-09-10 03:24:00,
2013-09-09 23:34:00,73.0,60.1,-100.00,North,-999,0.0,0.0,64,0.00,,,-99.99,FreeWX-Wi 1.02,2013-09-10 03:34:00,
2013-09-09 23:44:00,73.0,60.1,-100.00,North,-999,0.0,0.0,64,0.00,,,-99.99,FreeWX-Wi 1.02,2013-09-10 03:44:00,
2013-09-09 23:54:00,72.9,59.9,-100.00,North,-999,0.0,0.0,64,0.00,,,-99.99,FreeWX-Wi 1.02,2013-09-10 03:54:00,